TimeCST,TemperatureF,Dew PointF,Humidity,Sea Level PressureIn,VisibilityMPH,Wind Direction,Wind SpeedMPH,Gust SpeedMPH,PrecipitationIn,Events,Conditions,WindDirDegrees,DateUTC
12:15 AM,32.0,23.0,69,30.33,10.0,East,4.6,-,N/A,,Clear,100,2012-12-13 06:15:00
12:35 AM,32.0,23.0,69,30.33,10.0,ESE,3.5,-,N/A,,Clear,120,2012-12-13 06:35:00
12:55 AM,30.2,24.8,80,30.33,10.0,Calm,Calm,-,N/A,,Clear,0,2012-12-13 06:55:00
1:15 AM,32.0,23.0,69,30.33,10.0,Calm,Calm,-,N/A,,Clear,0,2012-12-13 07:15:00
1:35 AM,32.0,23.0,69,30.34,10.0,Calm,Calm,-,N/A,,Clear,0,2012-12-13 07:35:00
1:55 AM,32.0,23.0,69,30.34,10.0,Calm,Calm,-,N/A,,Clear,0,2012-12-13 07:55:00
2:15 AM,28.4,26.6,93,30.34,10.0,Calm,Calm,-,N/A,,Clear,0,2012-12-13 08:15:00
2:35 AM,30.2,24.8,80,30.33,10.0,Calm,Calm,-,N/A,,Clear,0,2012-12-13 08:35:00
2:55 AM,26.6,24.8,93,30.33,10.0,Calm,Calm,-,N/A,,Clear,0,2012-12-13 08:55:00
3:15 AM,28.4,26.6,93,30.33,10.0,Calm,Calm,-,N/A,,Clear,0,2012-12-13 09:15:00
3:35 AM,30.2,24.8,80,30.33,10.0,Calm,Calm,-,N/A,,Clear,0,2012-12-13 09:35:00
3:55 AM,24.8,23.0,93,30.33,10.0,East,3.5,-,N/A,,Clear,100,2012-12-13 09:55:00
4:15 AM,30.2,24.8,80,30.33,10.0,Calm,Calm,-,N/A,,Clear,0,2012-12-13 10:15:00
4:35 AM,28.4,24.8,86,30.33,10.0,Calm,Calm,-,N/A,,Clear,0,2012-12-13 10:35:00
4:55 AM,28.4,23.0,80,30.33,10.0,SSE,3.5,-,N/A,,Clear,150,2012-12-13 10:55:00
5:15 AM,28.4,24.8,86,30.33,10.0,SSE,4.6,-,N/A,,Clear,150,2012-12-13 11:15:00
5:35 AM,28.4,26.6,93,30.34,10.0,SSE,3.5,-,N/A,,Clear,160,2012-12-13 11:35:00
5:55 AM,28.4,26.6,93,30.34,10.0,ESE,3.5,-,N/A,,Clear,120,2012-12-13 11:55:00
6:15 AM,28.4,26.6,93,30.34,10.0,Calm,Calm,-,N/A,,Clear,0,2012-12-13 12:15:00
6:35 AM,30.2,26.6,86,30.35,10.0,Calm,Calm,-,N/A,,Clear,0,2012-12-13 12:35:00
6:55 AM,28.4,26.6,93,30.35,10.0,Calm,Calm,-,N/A,,Clear,0,2012-12-13 12:55:00
7:15 AM,24.8,24.8,100,30.35,10.0,Calm,Calm,-,N/A,,Clear,0,2012-12-13 13:15:00
7:35 AM,26.6,24.8,93,30.35,3.0,SE,3.5,-,N/A,,Clear,130,2012-12-13 13:35:00
7:55 AM,26.6,26.6,100,30.35,10.0,SE,4.6,-,N/A,,Clear,130,2012-12-13 13:55:00
8:15 AM,30.2,28.4,93,30.36,10.0,SE,3.5,-,N/A,,Clear,130,2012-12-13 14:15:00
8:35 AM,32.0,30.2,93,30.36,10.0,SE,3.5,-,N/A,,Clear,130,2012-12-13 14:35:00
8:55 AM,33.8,32.0,93,30.37,10.0,SE,4.6,-,N/A,,Clear,140,2012-12-13 14:55:00
9:15 AM,37.4,32.0,81,30.37,10.0,ESE,4.6,-,N/A,,Clear,120,2012-12-13 15:15:00
9:35 AM,41.0,32.0,70,30.37,10.0,SE,4.6,-,N/A,,Clear,130,2012-12-13 15:35:00
9:55 AM,42.8,32.0,66,30.37,10.0,SSE,4.6,-,N/A,,Clear,150,2012-12-13 15:55:00
10:15 AM,46.4,30.2,53,30.38,10.0,SSE,8.1,-,N/A,,Clear,160,2012-12-13 16:15:00
10:35 AM,50.0,28.4,43,30.38,10.0,SSE,6.9,-,N/A,,Clear,150,2012-12-13 16:35:00
10:55 AM,51.8,30.2,44,30.38,10.0,SSE,6.9,-,N/A,,Clear,150,2012-12-13 16:55:00
11:15 AM,53.6,28.4,38,30.37,10.0,South,8.1,-,N/A,,Clear,180,2012-12-13 17:15:00
11:35 AM,53.6,28.4,38,30.36,10.0,SSE,9.2,-,N/A,,Clear,150,2012-12-13 17:35:00
11:55 AM,55.4,26.6,33,30.35,10.0,South,9.2,-,N/A,,Clear,190,2012-12-13 17:55:00
12:15 PM,55.4,26.6,33,30.34,10.0,South,6.9,-,N/A,,Clear,180,2012-12-13 18:15:00
12:35 PM,55.4,26.6,33,30.33,10.0,SE,4.6,-,N/A,,Clear,130,2012-12-13 18:35:00
12:55 PM,55.4,26.6,33,30.31,10.0,South,3.5,-,N/A,,Clear,170,2012-12-13 18:55:00
1:15 PM,57.2,28.4,33,30.31,10.0,SSW,5.8,-,N/A,,Clear,200,2012-12-13 19:15:00
1:35 PM,59.0,28.4,31,30.30,10.0,SSE,5.8,-,N/A,,Clear,150,2012-12-13 19:35:00
1:55 PM,59.0,28.4,31,30.29,10.0,SE,8.1,-,N/A,,Clear,140,2012-12-13 19:55:00
2:15 PM,59.0,26.6,29,30.28,10.0,SE,5.8,-,N/A,,Clear,140,2012-12-13 20:15:00
2:35 PM,59.0,26.6,29,30.26,10.0,ESE,5.8,-,N/A,,Clear,120,2012-12-13 20:35:00
2:55 PM,60.8,26.6,27,30.25,10.0,SSE,5.8,-,N/A,,Clear,150,2012-12-13 20:55:00
3:15 PM,60.8,26.6,27,30.24,10.0,ESE,8.1,-,N/A,,Clear,120,2012-12-13 21:15:00
3:35 PM,60.8,26.6,27,30.24,10.0,ESE,5.8,-,N/A,,Clear,110,2012-12-13 21:35:00
3:55 PM,60.8,26.6,27,30.25,10.0,ESE,5.8,-,N/A,,Clear,120,2012-12-13 21:55:00
4:15 PM,59.0,26.6,29,30.24,10.0,East,8.1,-,N/A,,Clear,100,2012-12-13 22:15:00
4:35 PM,57.2,26.6,31,30.24,10.0,ESE,5.8,-,N/A,,Clear,110,2012-12-13 22:35:00
6:15 PM,51.8,24.8,35,30.25,10.0,Calm,Calm,-,N/A,,Clear,0,2012-12-14 00:15:00
7:15 PM,44.6,26.6,49,30.26,10.0,ESE,4.6,-,N/A,,Clear,120,2012-12-14 01:15:00
7:35 PM,44.6,26.6,49,30.26,10.0,ESE,4.6,-,N/A,,Clear,110,2012-12-14 01:35:00
7:55 PM,44.6,26.6,49,30.26,10.0,East,4.6,-,N/A,,Clear,100,2012-12-14 01:55:00
8:15 PM,44.6,26.6,49,30.25,10.0,East,5.8,-,N/A,,Clear,90,2012-12-14 02:15:00
8:35 PM,44.6,26.6,49,30.27,10.0,Calm,Calm,-,N/A,,Clear,0,2012-12-14 02:35:00
8:55 PM,42.8,26.6,53,30.27,10.0,ESE,3.5,-,N/A,,Clear,120,2012-12-14 02:55:00
9:15 PM,42.8,26.6,53,30.27,10.0,ESE,3.5,-,N/A,,Clear,110,2012-12-14 03:15:00
9:35 PM,42.8,26.6,53,30.26,10.0,Calm,Calm,-,N/A,,Clear,0,2012-12-14 03:35:00
9:55 PM,42.8,26.6,53,30.27,10.0,Calm,Calm,-,N/A,,Clear,0,2012-12-14 03:55:00
10:15 PM,41.0,26.6,57,30.27,10.0,ESE,4.6,-,N/A,,Clear,120,2012-12-14 04:15:00
10:35 PM,41.0,28.4,61,30.27,10.0,ESE,3.5,-,N/A,,Clear,120,2012-12-14 04:35:00
10:55 PM,39.2,28.4,65,30.25,10.0,East,5.8,-,N/A,,Clear,90,2012-12-14 04:55:00
11:15 PM,41.0,30.2,65,30.25,10.0,SE,3.5,-,N/A,,Clear,130,2012-12-14 05:15:00
11:35 PM,39.2,30.2,70,30.25,10.0,ESE,5.8,-,N/A,,Clear,110,2012-12-14 05:35:00
11:55 PM,39.2,30.2,70,30.25,10.0,SE,5.8,-,N/A,,Clear,130,2012-12-14 05:55:00